Location: Observatoire
(46.1952°N, 5.3391°E)
Time: 06:08:46
(UTC+01:00)

Tiros 1 despin weight - Pass Details

Date: 17 February 2026
Orbit: 556 x 593 km, 48.2° (Epoch: 13 March)

Event Time Altitude Azimuth Distance (km) Brightness Sun altitude
Rises 14:44:58 0° 197° (SSW) 2,732 ? 26.7°
Reaches altitude 10° 14:47:58 10° 174° (S) 1,835 ? 26.4°
Maximum altitude 14:50:27 16° 138° (SE) 1,513 ? 26.2°
Drops below altitude 10° 14:52:57 10° 101° (E) 1,835 ? 26.0°
Sets 14:55:56 0° 79° (ENE) 2,732 ? 25.7°
